#timestamp,LO_Frequency,Hit,StdDev 
1655877615.1,286046999.4,N
1655877616.0,286046999.4,N
1655877635.8,286046999.0,N
1655877655.7,286047001.2,N
1655877675.5,286047000.8,N
1655877695.3,286047001.0,N
1655877715.2,286046998.4,N
1655877735.9,286047001.1,N
1655877755.7,286046999.5,N
1655877775.6,286047000.8,N
1655877795.4,286046999.2,N
1655877815.3,286046999.6,N
1655877835.1,286046998.9,N
1655877836.0,286046998.9,N
1655877855.8,286047001.2,N
1655877875.7,286047001.1,N
1655877895.5,286046999.3,N
1655877915.4,286046998.6,N
1655877935.2,286046999.0,N
1655877955.0,286046998.1,N
1655877955.9,286046998.1,N
1655877975.8,286046998.8,N
1655877995.6,286046998.7,N
1655878015.5,286046999.0,N
1655878035.3,286046999.6,N
1655878055.2,286046997.1,N
1655878075.9,286046998.9,N
1655878095.7,286046998.2,N
1655878115.6,286046999.4,N
1655878135.4,286046999.3,N
1655878155.3,286046996.7,Y
1655878175.1,286046999.5,P
1655878176.0,286046999.5,P
1655878195.8,286046996.5,P
1655878215.7,286046999.2,N
1655878235.5,286046996.8,N
1655878255.3,286046997.2,N
1655878275.2,286046996.5,N
1655878295.0,286046995.4,Y
1655878295.9,286046995.4,P
1655878315.8,286046998.8,N
1655878335.6,286046996.5,N
1655878355.4,286046999.3,N
1655878375.3,286046999.6,N
1655878395.1,286046999.6,N
1655878415.9,286046999.4,N
1655878435.7,286046998.7,N
1655878455.5,286046998.9,N
1655878475.4,286047002.4,N
1655878495.2,286047000.3,N
1655878515.0,286047000.4,N
1655878515.9,286047000.4,N
1655878535.8,286046999.9,N
1655878555.6,286047002.8,N
1655878575.5,286047002.8,N
1655878595.3,286046999.8,N
1655878615.1,286047000.1,N
1655878635.9,286046999.9,N
1655878655.7,286047000.1,N
1655878675.5,286047000.1,N
1655878695.4,286047002.4,N
1655878715.2,286047002.4,N
1655878735.0,286047002.0,N
1655878736.0,286047002.0,N
1655878755.8,286047002.4,N
1655878775.6,286047002.6,N
1655878795.5,286046999.7,N
1655878815.3,286047000.1,N
1655878835.1,286047002.8,N
1655878855.9,286047002.6,N
1655878875.7,286047002.8,N
1655878895.6,286047002.8,N
1655878915.4,286047002.4,N
1655878935.2,286047002.3,N
1655878955.1,286046999.8,N
1655878956.0,286046999.8,N
1655878975.8,286047000.1,N
1655878995.7,286047002.5,N
1655879015.5,286046999.9,N
1655879035.3,286047000.4,N
1655879055.2,286047000.3,N
1655879075.0,286047002.5,N
1655879075.9,286047002.5,N
1655879095.8,286047001.6,N
1655879115.6,286047002.3,N
1655879135.4,286047002.4,N
1655879155.3,286047002.5,N
1655879175.1,286047001.8,N
1655879195.8,286047002.3,N
1655879215.7,286047001.5,N
1655879235.5,286047004.3,Y
1655879255.4,286046999.8,P
1655879275.2,286047002.8,N
1655879295.0,286047002.8,N
1655879295.9,286047002.8,N
1655879315.8,286046999.7,N
1655879335.6,286046999.9,N
1655879355.5,286047000.2,N
1655879375.3,286046999.7,N
1655879395.1,286047002.4,N
1655879415.9,286047000.6,N
1655879435.7,286047000.1,N
1655879455.5,286047000.2,N
1655879475.4,286047000.2,N
1655879495.2,286047000.2,N
1655879515.1,286047001.1,N
1655879516.0,286047001.1,N
1655879535.8,286047000.4,N
1655879555.6,286047000.3,N
1655879575.5,286047000.3,N
1655879595.3,286047000.3,N
1655879615.1,286046999.7,N
1655879635.9,286047002.4,N
1655879655.7,286047002.2,N
1655879675.6,286047002.0,N
1655879695.4,286047002.4,N
1655879715.2,286047002.0,N
1655879735.1,286047002.3,N
1655879736.0,286047002.3,N
1655879755.8,286046999.7,N
1655879775.6,286047002.8,N
1655879795.5,286046999.8,N
1655879815.3,286047002.4,N
1655879835.2,286046999.8,N
1655879855.9,286046999.8,N
1655879875.7,286046999.7,N
1655879895.6,286047002.7,N
1655879915.4,286047002.5,N
1655879935.2,286047002.6,N
1655879955.1,286046999.8,N
1655879956.0,286046999.8,N
1655879975.8,286046999.8,N
1655879995.7,286047002.7,N
1655880015.5,286046999.8,N
1655880035.3,286047002.4,N
1655880055.2,286046999.8,N
1655880075.0,286047000.3,N
1655880075.9,286047000.3,N
1655880095.8,286047002.0,N
1655880115.6,286047002.5,N
1655880135.4,286047002.0,N
1655880155.3,286047002.4,N
1655880175.1,286047002.7,N
1655880195.8,286047002.4,N
1655880215.7,286046999.9,N
1655880235.5,286047002.6,N
1655880255.4,286047002.6,N
1655880275.2,286047002.1,N
1655880295.0,286047002.2,N
1655880295.9,286047002.2,N
1655880315.8,286047001.5,N
1655880335.6,286047002.0,N
1655880355.4,286047003.9,Y
1655880375.3,286047002.5,P
1655880395.1,286047002.3,P
1655880415.9,286047002.8,P
1655880435.7,286047000.0,N
1655880455.5,286047000.2,N
1655880475.4,286047000.2,N
1655880495.2,286047000.2,N
1655880515.0,286046999.9,N
1655880515.9,286046999.9,N
1655880535.8,286047002.8,N
1655880555.6,286047000.2,N
1655880575.5,286047002.6,N
1655880595.3,286047002.6,N
1655880615.1,286047004.4,Y
1655880635.9,286047002.4,P
1655880655.7,286047001.5,N
1655880675.6,286046999.8,N
1655880695.4,286047001.8,N
1655880715.2,286047002.3,N
1655880735.1,286047002.1,N
1655880736.0,286047002.1,N
1655880755.8,286047002.0,N
1655880775.6,286047001.9,N
1655880795.5,286047002.1,N
1655880815.3,286047002.5,Y
1655880835.2,286047000.9,P
1655880855.9,286046999.2,N
1655880875.7,286046999.1,N
1655880895.6,286046998.9,N
1655880915.4,286046998.7,N
1655880935.2,286046999.2,N
1655880955.1,286046998.9,N
1655880956.0,286046998.9,N
1655880975.8,286046998.5,N
1655880995.7,286046998.4,N
1655881015.5,286046998.6,N
1655881035.3,286046998.2,N
1655881055.2,286046998.4,N
1655881075.0,286046999.1,N
1655881075.9,286046999.1,N
1655881095.7,286046998.6,N
1655881115.6,286046999.5,N
1655881135.4,286046996.9,Y
1655881155.3,286046998.5,P
1655881175.1,286046999.2,N
1655881195.8,286046998.1,P
